QPF
0.02 0.04 0.04 0.05 0.03 0.03 0.02 0.03 0.04 0.02 0.02 0.03 0.02 0.01 0.00 0.00 0.01 0.01 0.01 0.01 0.02 0.02 0.01 0.01 0.01 0.02 0.02 0.02 0.03 0.06 0.14 0.16 0.17 0.20 0.21 0.23 0.25 0.31 0.29 0.23 0.23 0.21 0.14 0.09
0.02 0.02 0.02 0.02 0.03 0.02 0.02 0.02 0.03 0.02 0.02 0.03 0.02 0.01 0.01 0.00 0.00 0.01 0.01 0.01 0.01 0.01 0.01 0.02 0.01 0.01 0.02 0.02 0.02 0.04 0.12 0.18 0.19 0.19 0.20 0.20 0.21 0.25 0.31 0.25 0.22 0.22 0.18 0.13
0.02 0.01 0.01 0.02 0.03 0.03 0.02 0.02 0.02 0.03 0.03 0.02 0.02 0.01 0.01 0.00 0.00 0.00 0.01 0.01 0.01 0.01 0.01 0.01 0.01 0.01 0.01 0.02 0.03 0.03 0.07 0.15 0.18 0.20 0.23 0.23 0.24 0.28 0.32 0.31 0.24 0.20 0.19 0.16
0.02 0.01 0.01 0.01 0.02 0.03 0.02 0.01 0.01 0.02 0.04 0.03 0.03 0.02 0.00 0.00 0.00 0.00 0.01 0.01 0.01 0.01 0.01 0.01 0.00 0.01 0.01 0.02 0.03 0.04 0.06 0.11 0.16 0.20 0.24 0.26 0.24 0.24 0.28 0.29 0.26 0.20 0.16 0.17
0.02 0.01 0.01 0.01 0.01 0.02 0.02 0.01 0.01 0.01 0.02 0.03 0.02 0.02 0.01 0.00 0.00 0.01 0.01 0.01 0.01 0.01 0.00 0.00 0.00 0.00 0.01 0.02 0.05 0.06 0.07 0.09 0.14 0.17 0.22 0.26 0.24 0.20 0.21 0.27 0.28 0.24 0.18 0.14
0.00 0.00 0.00 0.00 0.01 0.02 0.02 0.01 0.01 0.01 0.02 0.03 0.01 0.01 0.01 0.01 0.01 0.01 0.00 0.00 0.01 0.01 0.01 0.00 0.01 0.01 0.01 0.03 0.06 0.09 0.08 0.08 0.12 0.15 0.18 0.23 0.26 0.23 0.22 0.23 0.27 0.30 0.24 0.17
0.01 0.00 0.00 0.00 0.01 0.01 0.02 0.03 0.04 0.04 0.04 0.02 0.01 0.01 0.01 0.01 0.01 0.01 0.01 0.01 0.01 0.02 0.01 0.01 0.02 0.02 0.02 0.03 0.05 0.09 0.10 0.09 0.10 0.15 0.17 0.18 0.23 0.24 0.23 0.21 0.21 0.23 0.26 0.23
0.02 0.02 0.00 0.00 0.00 0.01 0.01 0.04 0.05 0.05 0.02 0.01 0.01 0.01 0.02 0.00 0.00 0.00 0.01 0.01 0.01 0.02 0.02 0.01 0.01 0.02 0.03 0.03 0.04 0.08 0.12 0.14 0.13 0.14 0.18 0.17 0.19 0.23 0.23 0.21 0.20 0.18 0.19 0.20
0.02 0.02 0.01 0.00 0.00 0.00 0.01 0.02 0.02 0.03 0.02 0.01 0.01 0.02 0.02 0.00 0.00 0.00 0.00 0.01 0.01 0.02 0.02 0.02 0.01 0.02 0.03 0.04 0.04 0.06 0.10 0.15 0.16 0.15 0.18 0.20 0.19 0.22 0.22 0.20 0.20 0.18 0.17 0.17
0.01 0.02 0.00 0.00 0.00 0.00 0.00 0.01 0.02 0.04 0.04 0.02 0.01 0.02 0.02 0.01 0.00 0.00 0.00 0.01 0.01 0.02 0.03 0.03 0.02 0.02 0.03 0.03 0.03 0.04 0.07 0.13 0.19 0.18 0.17 0.20 0.20 0.21 0.22 0.20 0.17 0.16 0.16 0.15
0.01 0.02 0.01 0.00 0.00 0.01 0.00 0.01 0.02 0.03 0.03 0.03 0.02 0.03 0.02 0.01 0.00 0.00 0.00 0.01 0.01 0.02 0.04 0.04 0.03 0.02 0.02 0.03 0.03 0.03 0.05 0.10 0.18 0.23 0.19 0.18 0.20 0.19 0.21 0.22 0.17 0.13 0.14 0.13
0.01 0.03 0.02 0.00 0.00 0.00 0.00 0.01 0.02 0.04 0.03 0.03 0.03 0.02 0.01 0.00 0.00 0.00 0.00 0.01 0.01 0.02 0.03 0.05 0.07 0.04 0.02 0.04 0.04 0.04 0.05 0.08 0.14 0.22 0.23 0.20 0.19 0.19 0.19 0.19 0.18 0.15 0.13 0.12
0.03 0.05 0.03 0.01 0.01 0.01 0.01 0.01 0.01 0.02 0.03 0.03 0.03 0.01 0.01 0.00 0.00 0.00 0.00 0.01 0.01 0.01 0.02 0.04 0.07 0.05 0.03 0.04 0.05 0.04 0.05 0.07 0.10 0.17 0.22 0.22 0.20 0.20 0.18 0.16 0.17 0.18 0.17 0.15
0.06 0.07 0.03 0.01 0.01 0.02 0.02 0.01 0.01 0.02 0.04 0.02 0.02 0.01 0.01 0.00 0.00 0.00 0.00 0.00 0.01 0.01 0.01 0.03 0.03 0.04 0.04 0.03 0.04 0.03 0.04 0.06 0.08 0.13 0.19 0.21 0.20 0.18 0.16 0.13 0.15 0.18 0.18 0.17
0.08 0.07 0.02 0.01 0.00 0.02 0.03 0.02 0.01 0.02 0.03 0.03 0.02 0.01 0.01 0.00 0.00 0.00 0.00 0.00 0.00 0.00 0.01 0.01 0.02 0.02 0.03 0.03 0.04 0.04 0.05 0.05 0.06 0.08 0.12 0.18 0.18 0.17 0.14 0.13 0.13 0.18 0.21 0.20
0.06 0.06 0.02 0.01 0.01 0.02 0.02 0.02 0.02 0.01 0.01 0.01 0.01 0.00 0.00 0.00 0.00 0.00 0.00 0.00 0.00 0.00 0.01 0.01 0.01 0.02 0.02 0.02 0.03 0.05 0.06 0.05 0.05 0.06 0.07 0.12 0.16 0.18 0.14 0.12 0.12 0.13 0.19 0.23
0.05 0.05 0.05 0.03 0.01 0.02 0.02 0.01 0.01 0.01 0.01 0.01 0.01 0.00 0.00 0.00 0.00 0.00 0.00 0.00 0.00 0.01 0.01 0.01 0.01 0.02 0.02 0.01 0.02 0.05 0.06 0.05 0.05 0.05 0.05 0.07 0.11 0.15 0.17 0.12 0.12 0.13 0.14 0.20
0.04 0.06 0.09 0.06 0.03 0.03 0.01 0.01 0.01 0.01 0.01 0.01 0.01 0.01 0.00 0.00 0.00 0.00 0.00 0.00 0.00 0.00 0.01 0.01 0.01 0.02 0.02 0.01 0.02 0.05 0.05 0.05 0.05 0.04 0.05 0.05 0.07 0.11 0.14 0.14 0.12 0.11 0.12 0.15
0.02 0.07 0.10 0.07 0.04 0.02 0.00 0.01 0.02 0.01 0.01 0.01 0.01 0.01 0.00 0.00 0.00 0.00 0.00 0.00 0.00 0.00 0.01 0.01 0.01 0.02 0.02 0.01 0.02 0.04 0.04 0.04 0.04 0.04 0.04 0.04 0.05 0.08 0.11 0.12 0.10 0.10 0.11 0.12
0.02 0.06 0.10 0.07 0.05 0.02 0.01 0.01 0.01 0.01 0.02 0.01 0.01 0.01 0.00 0.00 0.00 0.00 0.00 0.00 0.00 0.00 0.00 0.00 0.01 0.01 0.01 0.01 0.02 0.04 0.03 0.03 0.04 0.04 0.04 0.03 0.04 0.05 0.08 0.10 0.08 0.09 0.10 0.10
0.02 0.06 0.07 0.05 0.05 0.02 0.01 0.00 0.00 0.02 0.03 0.02 0.02 0.01 0.01 0.00 0.00 0.00 0.00 0.00 0.00 0.00 0.00 0.00 0.00 0.01 0.01 0.01 0.02 0.04 0.03 0.03 0.04 0.04 0.03 0.03 0.03 0.04 0.05 0.08 0.08 0.08 0.08 0.10
0.01 0.02 0.03 0.04 0.05 0.03 0.01 0.01 0.01 0.02 0.02 0.02 0.02 0.01 0.01 0.00 0.00 0.00 0.00 0.00 0.00 0.01 0.00 0.00 0.00 0.00 0.01 0.01 0.02 0.03 0.03 0.03 0.04 0.04 0.03 0.03 0.03 0.03 0.04 0.07 0.08 0.08 0.07 0.09
0.01 0.01 0.02 0.02 0.02 0.01 0.01 0.01 0.02 0.01 0.02 0.02 0.02 0.01 0.00 0.00 0.00 0.00 0.00 0.00 0.01 0.01 0.01 0.00 0.00 0.01 0.01 0.01 0.01 0.02 0.02 0.02 0.03 0.04 0.03 0.03 0.03 0.03 0.04 0.05 0.07 0.09 0.07 0.07
0.01 0.00 0.01 0.01 0.00 0.00 0.01 0.01 0.01 0.01 0.02 0.02 0.02 0.01 0.00 0.00 0.00 0.00 0.00 0.00 0.01 0.01 0.01 0.01 0.01 0.01 0.01 0.01 0.01 0.01 0.01 0.02 0.02 0.03 0.03 0.03 0.04 0.04 0.04 0.05 0.05 0.07 0.08 0.05
0.01 0.01 0.01 0.01 0.01 0.01 0.01 0.00 0.01 0.01 0.01 0.02 0.01 0.00 0.00 0.00 0.00 0.00 0.00 0.01 0.01 0.01 0.01 0.01 0.01 0.01 0.00 0.01 0.01 0.01 0.01 0.02 0.02 0.03 0.03 0.04 0.04 0.04 0.05 0.05 0.05 0.04 0.05 0.05
0.00 0.01 0.02 0.02 0.01 0.01 0.01 0.00 0.00 0.00 0.01 0.01 0.01 0.00 0.00 0.00 0.00 0.00 0.00 0.01 0.01 0.01 0.01 0.01 0.00 0.00 0.00 0.00 0.01 0.01 0.02 0.02 0.03 0.03 0.04 0.04 0.04 0.05 0.05 0.06 0.06 0.06 0.05 0.06
MSLP
1014.65 1014.39 1014.12 1013.85 1013.61 1013.42 1013.25 1013.10 1012.93 1012.72 1012.42 1012.04 1011.57 1011.04 1010.47 1009.92 1009.41 1008.99 1008.66 1008.44 1008.30 1008.24 1008.21 1008.19 1008.17 1008.11 1008.02 1007.88 1007.69 1007.46 1007.18 1006.86 1006.51 1006.13 1005.75 1005.39 1005.07 1004.84 1004.71 1004.72 1004.87 1005.18 1005.62 1006.20
1014.46 1014.16 1013.87 1013.62 1013.43 1013.32 1013.25 1013.19 1013.09 1012.90 1012.59 1012.13 1011.55 1010.87 1010.14 1009.43 1008.81 1008.31 1007.96 1007.77 1007.72 1007.77 1007.88 1008.00 1008.09 1008.11 1008.07 1007.96 1007.78 1007.55 1007.27 1006.97 1006.64 1006.29 1005.94 1005.61 1005.29 1005.04 1004.86 1004.78 1004.84 1005.03 1005.37 1005.85
1014.14 1013.80 1013.51 1013.31 1013.21 1013.20 1013.25 1013.31 1013.29 1013.13 1012.79 1012.25 1011.52 1010.66 1009.73 1008.83 1008.05 1007.45 1007.08 1006.93 1006.98 1007.17 1007.44 1007.72 1007.95 1008.09 1008.12 1008.04 1007.86 1007.61 1007.31 1006.98 1006.65 1006.31 1005.97 1005.64 1005.33 1005.05 1004.83 1004.69 1004.66 1004.76 1005.01 1005.41
1013.71 1013.36 1013.09 1012.96 1012.97 1013.10 1013.30 1013.48 1013.55 1013.43 1013.05 1012.41 1011.51 1010.44 1009.28 1008.17 1007.22 1006.51 1006.09 1005.97 1006.12 1006.46 1006.91 1007.37 1007.76 1008.02 1008.12 1008.07 1007.88 1007.60 1007.26 1006.89 1006.53 1006.17 1005.83 1005.50 1005.18 1004.89 1004.64 1004.45 1004.36 1004.38 1004.56 1004.89
1013.25 1012.90 1012.69 1012.64 1012.77 1013.05 1013.40 1013.72 1013.88 1013.79 1013.38 1012.63 1011.56 1010.28 1008.89 1007.56 1006.42 1005.58 1005.11 1005.01 1005.24 1005.72 1006.33 1006.96 1007.50 1007.88 1008.06 1008.04 1007.84 1007.52 1007.12 1006.70 1006.29 1005.90 1005.55 1005.21 1004.90 1004.60 1004.33 1004.12 1003.97 1003.94 1004.05 1004.32
1012.83 1012.51 1012.35 1012.40 1012.66 1013.09 1013.58 1014.02 1014.27 1014.21 1013.77 1012.92 1011.70 1010.22 1008.63 1007.09 1005.77 1004.80 1004.26 1004.16 1004.45 1005.03 1005.78 1006.55 1007.22 1007.70 1007.94 1007.94 1007.73 1007.37 1006.92 1006.45 1005.98 1005.57 1005.19 1004.85 1004.54 1004.25 1003.98 1003.74 1003.57 1003.49 1003.55 1003.76
1012.51 1012.22 1012.13 1012.27 1012.65 1013.19 1013.81 1014.36 1014.68 1014.65 1014.19 1013.26 1011.93 1010.30 1008.53 1006.82 1005.35 1004.26 1003.65 1003.52 1003.83 1004.47 1005.31 1006.17 1006.93 1007.48 1007.76 1007.77 1007.56 1007.16 1006.67 1006.15 1005.65 1005.21 1004.83 1004.49 1004.19 1003.91 1003.64 1003.39 1003.19 1003.07 1003.07 1003.23
1012.34 1012.09 1012.04 1012.26 1012.71 1013.34 1014.04 1014.66 1015.03 1015.02 1014.55 1013.58 1012.18 1010.46 1008.59 1006.77 1005.19 1004.01 1003.33 1003.16 1003.45 1004.10 1004.96 1005.86 1006.65 1007.23 1007.53 1007.55 1007.32 1006.91 1006.39 1005.84 1005.33 1004.89 1004.50 1004.18 1003.89 1003.62 1003.35 1003.09 1002.86 1002.70 1002.65 1002.74
1012.32 1012.09 1012.08 1012.32 1012.80 1013.46 1014.19 1014.82 1015.21 1015.21 1014.74 1013.78 1012.36 1010.62 1008.72 1006.86 1005.24 1004.01 1003.28 1003.06 1003.30 1003.91 1004.73 1005.61 1006.38 1006.95 1007.24 1007.26 1007.02 1006.61 1006.09 1005.56 1005.05 1004.61 1004.25 1003.94 1003.66 1003.39 1003.11 1002.83 1002.57 1002.35 1002.24 1002.27
1012.41 1012.18 1012.17 1012.39 1012.85 1013.47 1014.16 1014.76 1015.12 1015.11 1014.65 1013.71 1012.34 1010.65 1008.80 1006.99 1005.40 1004.17 1003.41 1003.15 1003.33 1003.86 1004.60 1005.40 1006.11 1006.63 1006.89 1006.90 1006.67 1006.28 1005.79 1005.28 1004.81 1004.40 1004.05 1003.76 1003.49 1003.21 1002.91 1002.59 1002.27 1002.00 1001.82 1001.77
1012.52 1012.28 1012.23 1012.40 1012.77 1013.29 1013.87 1014.37 1014.66 1014.61 1014.16 1013.27 1011.99 1010.42 1008.70 1007.01 1005.52 1004.36 1003.61 1003.32 1003.43 1003.86 1004.49 1005.18 1005.80 1006.25 1006.48 1006.47 1006.26 1005.91 1005.47 1005.01 1004.59 1004.22 1003.90 1003.62 1003.33 1003.03 1002.69 1002.32 1001.94 1001.59 1001.33 1001.22
1012.56 1012.31 1012.20 1012.27 1012.52 1012.88 1013.29 1013.64 1013.80 1013.69 1013.23 1012.40 1011.24 1009.84 1008.31 1006.81 1005.48 1004.44 1003.75 1003.46 1003.51 1003.85 1004.36 1004.92 1005.43 1005.80 1005.99 1005.98 1005.80 1005.50 1005.13 1004.74 1004.38 1004.05 1003.76 1003.47 1003.16 1002.81 1002.41 1001.97 1001.52 1001.10 1000.77 1000.58
1012.45 1012.18 1012.01 1011.97 1012.06 1012.23 1012.44 1012.58 1012.59 1012.37 1011.89 1011.12 1010.10 1008.89 1007.59 1006.33 1005.21 1004.33 1003.75 1003.49 1003.51 1003.77 1004.17 1004.61 1005.01 1005.30 1005.45 1005.44 1005.30 1005.06 1004.77 1004.46 1004.16 1003.88 1003.59 1003.29 1002.95 1002.54 1002.07 1001.55 1001.02 1000.52 1000.13 999.88
1012.13 1011.86 1011.65 1011.50 1011.42 1011.39 1011.36 1011.29 1011.11 1010.77 1010.25 1009.53 1008.64 1007.64 1006.59 1005.58 1004.71 1004.03 1003.59 1003.39 1003.41 1003.61 1003.91 1004.25 1004.55 1004.77 1004.89 1004.89 1004.79 1004.62 1004.41 1004.17 1003.93 1003.67 1003.40 1003.07 1002.68 1002.20 1001.65 1001.06 1000.45 999.89 999.44 999.16
1011.61 1011.37 1011.12 1010.88 1010.65 1010.42 1010.17 1009.87 1009.50 1009.03 1008.46 1007.78 1007.01 1006.21 1005.41 1004.67 1004.05 1003.59 1003.30 1003.20 1003.24 1003.41 1003.64 1003.89 1004.11 1004.26 1004.35 1004.35 1004.29 1004.18 1004.03 1003.86 1003.67 1003.44 1003.15 1002.80 1002.35 1001.81 1001.20 1000.53 999.87 999.26 998.77 998.46
1010.92 1010.72 1010.46 1010.16 1009.80 1009.40 1008.95 1008.45 1007.90 1007.31 1006.68 1006.04 1005.39 1004.77 1004.20 1003.72 1003.36 1003.11 1002.99 1002.98 1003.06 1003.21 1003.39 1003.57 1003.71 1003.81 1003.86 1003.86 1003.82 1003.75 1003.66 1003.53 1003.37 1003.15 1002.86 1002.47 1001.98 1001.39 1000.72 1000.00 999.30 998.66 998.15 997.83
1010.09 1009.95 1009.71 1009.36 1008.92 1008.38 1007.77 1007.11 1006.43 1005.74 1005.09 1004.48 1003.94 1003.49 1003.13 1002.89 1002.75 1002.70 1002.73 1002.82 1002.94 1003.08 1003.21 1003.32 1003.39 1003.43 1003.44 1003.42 1003.38 1003.33 1003.26 1003.16 1003.02 1002.81 1002.51 1002.10 1001.57 1000.95 1000.24 999.49 998.77 998.12 997.62 997.30
1009.18 1009.08 1008.86 1008.50 1008.01 1007.39 1006.68 1005.92 1005.15 1004.42 1003.76 1003.21 1002.78 1002.49 1002.33 1002.28 1002.33 1002.45 1002.60 1002.77 1002.93 1003.05 1003.13 1003.16 1003.16 1003.12 1003.07 1003.01 1002.96 1002.90 1002.83 1002.74 1002.60 1002.39 1002.08 1001.66 1001.12 1000.48 999.76 999.01 998.28 997.65 997.15 996.84
1008.21 1008.14 1007.93 1007.57 1007.05 1006.40 1005.66 1004.87 1004.08 1003.36 1002.75 1002.28 1001.98 1001.83 1001.83 1001.95 1002.15 1002.39 1002.64 1002.85 1003.01 1003.10 1003.12 1003.07 1002.97 1002.85 1002.72 1002.60 1002.50 1002.42 1002.34 1002.24 1002.10 1001.88 1001.57 1001.14 1000.60 999.97 999.25 998.52 997.81 997.18 996.71 996.41
1007.17 1007.09 1006.89 1006.53 1006.02 1005.39 1004.67 1003.92 1003.19 1002.55 1002.03 1001.68 1001.50 1001.49 1001.63 1001.88 1002.19 1002.51 1002.80 1003.02 1003.15 1003.18 1003.11 1002.97 1002.77 1002.56 1002.34 1002.15 1001.99 1001.87 1001.76 1001.64 1001.49 1001.28 1000.97 1000.55 1000.02 999.40 998.70 997.99 997.30 996.69 996.23 995.95
1006.05 1005.95 1005.72 1005.37 1004.90 1004.32 1003.68 1003.04 1002.43 1001.92 1001.54 1001.33 1001.29 1001.41 1001.66 1002.00 1002.37 1002.72 1003.00 1003.19 1003.26 1003.21 1003.04 1002.79 1002.49 1002.18 1001.87 1001.61 1001.39 1001.22 1001.09 1000.95 1000.80 1000.58 1000.28 999.88 999.37 998.77 998.09 997.39 996.72 996.13 995.67 995.39
1004.86 1004.70 1004.45 1004.12 1003.70 1003.22 1002.72 1002.22 1001.78 1001.45 1001.24 1001.19 1001.29 1001.52 1001.84 1002.22 1002.60 1002.93 1003.16 1003.28 1003.25 1003.10 1002.82 1002.47 1002.07 1001.66 1001.28 1000.96 1000.69 1000.49 1000.34 1000.20 1000.04 999.83 999.55 999.16 998.67 998.08 997.42 996.72 996.06 995.46 995.00 994.71
1003.63 1003.40 1003.14 1002.84 1002.50 1002.15 1001.80 1001.50 1001.26 1001.12 1001.10 1001.20 1001.42 1001.72 1002.09 1002.46 1002.80 1003.06 1003.20 1003.20 1003.06 1002.79 1002.41 1001.96 1001.47 1001.00 1000.56 1000.20 999.91 999.70 999.54 999.40 999.26 999.06 998.79 998.41 997.93 997.35 996.69 996.00 995.32 994.72 994.24 993.93
1002.41 1002.14 1001.89 1001.64 1001.41 1001.21 1001.05 1000.94 1000.91 1000.97 1001.11 1001.34 1001.64 1001.99 1002.34 1002.66 1002.91 1003.05 1003.06 1002.93 1002.66 1002.27 1001.79 1001.25 1000.71 1000.19 999.73 999.36 999.08 998.87 998.73 998.61 998.48 998.30 998.04 997.68 997.20 996.62 995.95 995.25 994.55 993.93 993.43 993.12
1001.32 1001.05 1000.84 1000.68 1000.57 1000.53 1000.56 1000.65 1000.80 1001.03 1001.30 1001.62 1001.96 1002.29 1002.58 1002.79 1002.91 1002.90 1002.75 1002.47 1002.07 1001.56 1000.99 1000.40 999.82 999.29 998.84 998.49 998.23 998.06 997.95 997.85 997.75 997.58 997.33 996.97 996.49 995.90 995.22 994.50 993.80 993.16 992.66 992.34
1000.48 1000.26 1000.12 1000.08 1000.11 1000.24 1000.43 1000.69 1001.00 1001.34 1001.70 1002.04 1002.36 1002.62 1002.80 1002.86 1002.81 1002.63 1002.31 1001.88 1001.34 1000.73 1000.09 999.46 998.87 998.35 997.93 997.62 997.41 997.28 997.20 997.14 997.05 996.89 996.65 996.28 995.79 995.19 994.51 993.79 993.09 992.47 991.99 991.70
Thickness
5560 5551 5548 5551 5548 5544 5540 5536 5535 5543 5548 5543 5542 5547 5555 5558 5557 5558 5559 5561 5563 5566 5573 5578 5583 5587 5592 5598 5603 5609 5613 5618 5624 5629 5634 5639 5646 5652 5658 5664 5668 5668 5668 5668
5552 5547 5552 5551 5545 5538 5531 5526 5529 5538 5541 5535 5533 5540 5548 5552 5553 5555 5555 5555 5555 5557 5561 5566 5572 5577 5581 5586 5592 5597 5602 5608 5614 5620 5626 5631 5637 5643 5648 5654 5658 5662 5663 5663
5545 5550 5550 5542 5536 5530 5527 5521 5522 5521 5525 5526 5521 5532 5544 5552 5552 5552 5551 5550 5549 5550 5551 5556 5561 5566 5570 5576 5582 5587 5593 5599 5604 5610 5615 5620 5626 5632 5637 5645 5651 5655 5657 5657
5543 5548 5541 5533 5527 5523 5516 5522 5517 5512 5501 5500 5507 5497 5531 5539 5544 5545 5542 5540 5540 5540 5542 5546 5551 5556 5561 5566 5572 5576 5582 5589 5595 5601 5606 5612 5618 5625 5633 5640 5644 5646 5650 5651
5535 5537 5531 5525 5524 5518 5513 5513 5507 5503 5494 5489 5498 5485 5516 5534 5535 5535 5534 5533 5533 5533 5535 5537 5541 5547 5552 5557 5561 5566 5572 5579 5587 5593 5598 5605 5612 5619 5624 5631 5636 5639 5643 5646
5530 5532 5527 5524 5520 5514 5508 5502 5499 5499 5487 5473 5496 5488 5504 5521 5525 5526 5527 5527 5526 5526 5527 5529 5533 5538 5543 5547 5552 5555 5564 5571 5579 5585 5591 5598 5605 5611 5616 5623 5629 5633 5637 5639
5525 5529 5526 5519 5507 5505 5496 5476 5462 5463 5465 5475 5506 5499 5505 5518 5521 5520 5519 5518 5517 5516 5517 5519 5522 5526 5533 5539 5544 5548 5555 5564 5572 5578 5584 5591 5600 5605 5611 5618 5624 5628 5630 5633
5500 5508 5519 5511 5499 5490 5483 5471 5449 5443 5456 5476 5491 5491 5508 5518 5516 5514 5513 5512 5510 5509 5509 5511 5515 5518 5523 5530 5536 5542 5549 5556 5565 5572 5578 5586 5593 5599 5606 5614 5619 5623 5626 5630
5489 5496 5511 5504 5498 5488 5477 5469 5467 5448 5445 5446 5468 5492 5504 5510 5506 5504 5503 5501 5499 5500 5502 5504 5508 5512 5517 5521 5527 5534 5542 5549 5558 5565 5572 5579 5587 5594 5602 5609 5614 5619 5622 5625
5482 5473 5492 5495 5490 5484 5475 5469 5452 5436 5427 5436 5462 5479 5486 5492 5492 5493 5492 5491 5491 5492 5493 5496 5500 5505 5510 5515 5520 5526 5534 5543 5551 5559 5567 5575 5583 5591 5597 5603 5609 5615 5619 5621
5474 5458 5471 5479 5474 5469 5464 5457 5448 5435 5432 5426 5434 5463 5491 5484 5483 5481 5482 5483 5484 5484 5485 5487 5492 5497 5503 5509 5514 5520 5527 5536 5542 5550 5560 5568 5578 5586 5592 5598 5606 5611 5614 5617
5464 5448 5448 5465 5477 5474 5464 5455 5441 5421 5419 5423 5421 5449 5483 5477 5475 5474 5473 5474 5476 5477 5478 5480 5483 5489 5494 5501 5508 5514 5520 5527 5534 5542 5552 5562 5572 5579 5585 5592 5600 5606 5610 5614
5450 5436 5429 5449 5459 5457 5448 5446 5437 5425 5417 5415 5416 5442 5474 5469 5466 5466 5465 5466 5467 5470 5472 5474 5476 5480 5486 5492 5499 5507 5513 5519 5527 5535 5545 5555 5564 5573 5581 5588 5594 5601 5606 5609
5447 5430 5426 5434 5446 5436 5430 5431 5427 5415 5407 5411 5423 5438 5455 5454 5453 5455 5455 5456 5458 5460 5464 5467 5469 5472 5477 5484 5491 5498 5506 5513 5521 5528 5537 5547 5556 5566 5576 5583 5589 5596 5602 5605
5434 5425 5426 5434 5441 5436 5430 5431 5429 5418 5415 5409 5425 5433 5445 5445 5443 5446 5447 5448 5451 5453 5457 5460 5462 5464 5469 5475 5482 5490 5498 5507 5514 5521 5531 5541 5550 5559 5568 5576 5584 5591 5597 5601
5425 5418 5419 5423 5432 5430 5428 5434 5432 5427 5425 5423 5425 5433 5444 5442 5440 5440 5439 5441 5443 5445 5449 5452 5456 5459 5462 5467 5474 5482 5490 5499 5507 5514 5524 5534 5543 5551 5560 5569 5578 5585 5590 5595
5415 5407 5405 5413 5424 5418 5419 5438 5434 5432 5433 5427 5422 5430 5436 5434 5433 5432 5433 5434 5434 5437 5441 5444 5447 5450 5455 5461 5467 5473 5481 5491 5499 5508 5517 5527 5535 5544 5552 5562 5571 5577 5584 5588
5410 5402 5397 5400 5400 5393 5432 5446 5442 5435 5434 5430 5426 5427 5427 5426 5428 5428 5428 5426 5427 5430 5433 5437 5440 5443 5448 5454 5461 5468 5475 5483 5491 5501 5511 5520 5528 5536 5545 5554 5563 5570 5576 5581
5417 5400 5392 5391 5390 5402 5429 5438 5432 5422 5420 5424 5419 5420 5420 5421 5420 5421 5423 5421 5421 5422 5426 5429 5432 5436 5441 5447 5454 5461 5468 5475 5483 5492 5502 5512 5520 5528 5537 5546 5554 5563 5568 5573
5414 5400 5388 5387 5384 5391 5423 5429 5426 5415 5404 5415 5412 5409 5408 5406 5396 5405 5413 5413 5414 5416 5419 5422 5425 5429 5434 5440 5446 5453 5461 5468 5475 5484 5493 5503 5513 5522 5530 5539 5547 5555 5561 5566
5395 5387 5383 5381 5379 5393 5418 5418 5411 5390 5393 5406 5405 5400 5397 5392 5391 5397 5403 5405 5406 5408 5411 5414 5418 5421 5426 5432 5438 5444 5453 5460 5469 5477 5486 5496 5506 5515 5524 5532 5540 5548 5554 5559
5392 5383 5380 5377 5373 5387 5411 5405 5394 5393 5399 5397 5394 5391 5388 5388 5390 5392 5394 5396 5398 5400 5403 5407 5409 5413 5419 5424 5430 5436 5444 5453 5461 5470 5479 5489 5499 5509 5518 5525 5532 5539 5546 5551
5398 5394 5390 5387 5394 5406 5403 5398 5396 5393 5388 5387 5384 5383 5382 5381 5381 5383 5385 5386 5389 5392 5395 5398 5401 5406 5411 5417 5422 5429 5436 5445 5454 5463 5472 5482 5492 5501 5511 5518 5525 5531 5539 5546
5399 5400 5389 5386 5395 5399 5396 5392 5388 5385 5381 5380 5378 5375 5374 5372 5373 5373 5375 5378 5381 5384 5387 5390 5394 5398 5404 5409 5416 5423 5430 5438 5447 5456 5465 5475 5485 5495 5505 5513 5520 5526 5534 5540
5393 5387 5379 5378 5385 5384 5387 5384 5381 5377 5375 5373 5371 5368 5366 5365 5364 5364 5366 5369 5372 5376 5379 5382 5385 5390 5396 5402 5409 5416 5423 5431 5440 5449 5459 5469 5480 5490 5498 5506 5513 5520 5529 5537
5386 5379 5371 5373 5378 5371 5374 5375 5372 5368 5365 5363 5360 5359 5359 5357 5356 5357 5359 5361 5364 5367 5370 5374 5378 5383 5389 5395 5402 5409 5417 5425 5433 5443 5452 5462 5472 5482 5490 5497 5503 5511 5520 5526